Location: Aigueperse
(46.0228°N, 3.2023°E)
Time: 15:37:25
(UTC+00:00)

Daily predictions for brighter satellites

Satellite Brightness Start Highest point End
(mag) Time Altitude Azimuth Time Altitude Azimuth Time Altitude Azimuth
NOSS 3-1 (A) 3.4 17:49:18 10° SSW 17:54:39 58° ESE 18:00:49 10° NE
STARLINK-71 4.1 17:50:58 10° WSW 17:54:56 55° NNW 17:58:54 10° NE
STARLINK-1034 4.0 17:51:17 10° SW 17:55:17 50° SE 17:59:18 10° ENE
Cosmos 1862 Rocket 3.9 17:51:40 10° N 17:55:48 42° ENE 17:59:56 10° SSE
STARLINK-79 4.0 17:52:22 10° WSW 17:56:21 58° NNW 18:00:20 10° NE
COSMO-SKYMED 1 2.5 17:52:16 10° NNE 17:56:38 73° ESE 18:00:58 10° S
STARLINK-52 3.2 17:53:32 10° NW 17:56:53 57° NNE 18:00:13 10° ESE
STARLINK-1048 3.5 17:53:43 10° WSW 17:56:59 57° NNW 18:00:17 10° NE
Okean-O 3.0 17:53:21 10° S 17:57:46 71° WSW 18:02:13 10° NNW
STARLINK-78 4.1 17:54:04 10° WSW 17:58:02 56° NNW 18:02:00 10° NE
Cosmos 1707 Rocket 3.7 17:53:45 10° N 17:58:13 84° W 18:02:41 10° S
STARLINK-1049 3.5 17:55:26 10° WSW 17:58:42 56° NNW 18:01:59 10° NE
STARLINK-60 3.5 17:56:07 10° WNW 17:59:22 61° SW 18:02:37 10° SE
STARLINK-57 4.1 17:55:51 10° WSW 17:59:48 54° NNW 18:03:45 10° NE
CENTAUR R/B 4.5 17:54:50 10° NW 18:00:11 21° N 18:06:03 10° NE
STARLINK-1068 3.9 17:56:12 10° SW 18:00:14 54° SE 18:04:17 10° ENE
STARLINK-1051 3.6 17:57:11 10° WSW 18:00:27 54° NNW 18:03:43 10° NE
STARLINK-1028 3.6 17:57:35 10° WSW 18:00:51 54° NNW 18:04:07 10° NE
STARLINK-64 4.3 17:57:30 10° W 18:00:54 39° NNW 18:04:19 10° NE
FALCON 9 DEB 3.1 17:57:40 10° WNW 18:01:07 78° NNE 18:04:34 10° ESE
STARLINK-49 4.1 17:57:22 10° WSW 18:01:19 54° NNW 18:05:17 10° NE
STARLINK-1021 3.6 17:59:21 10° WSW 18:02:37 52° NNW 18:05:54 10° NE
Cosmos 2369 Rocket 2.2 17:57:21 10° SSW 18:02:56 65° ESE 18:08:35 10° NNE
STARLINK-27 4.1 17:59:02 10° WSW 18:03:00 53° NNW 18:06:57 10° NE
Cosmos 1812 2.6 17:59:23 10° N 18:03:17 75° E 18:07:08 10° SSE
STARLINK-1019 3.7 18:01:08 10° WSW 18:04:23 51° NNW 18:07:40 10° NE
Cosmos 921 Rocket 3.1 17:59:58 10° SSW 18:04:28 84° ESE 18:09:01 10° NNE
STARLINK-74 4.2 18:00:43 10° W 18:04:39 52° NNW 18:08:36 10° NE
Ariane Rocket 3.9 18:00:43 10° ESE 18:04:58 28° ENE 18:09:16 10° N
CZ-4 R/B 4.5 18:00:57 10° SSE 18:05:04 89° SW 18:09:14 10° NNW
STARLINK-1012 3.7 18:02:56 10° WSW 18:06:12 50° NNW 18:09:28 10° NE
STARLINK-39 4.2 18:02:22 10° W 18:06:18 51° NNW 18:10:15 10° NE
Lacrosse 5 3.8 18:05:50 10° SE 18:06:45 10° ESE 18:07:41 10° ESE
STARLINK-31 4.2 18:04:03 10° W 18:07:59 50° NNW 18:11:55 10° NE
Okean 1-7 4.3 18:05:53 10° NNE 18:09:03 20° ENE 18:12:14 10° ESE
STARLINK-1026 3.8 18:06:32 10° W 18:09:47 47° NNW 18:13:02 10° NE
STARLINK-69 4.3 18:05:56 10° W 18:09:50 47° NNW 18:13:45 10° NE
STARLINK-1014 3.6 18:06:43 10° WSW 18:10:09 57° NNW 18:13:36 10° NE
STARLINK-1060 3.7 18:06:04 10° SW 18:10:10 63° SE 18:14:13 10° ENE
STARLINK-21 4.3 18:07:24 10° W 18:11:19 48° NNW 18:15:14 10° NE
STARLINK-1013 3.8 18:08:22 10° W 18:11:37 46° NNW 18:14:52 10° NE
ATLAS 3B R/B 4.5 18:07:40 10° NW 18:11:47 17° N 18:15:56 10° NE
STARLINK-45 4.4 18:09:19 10° W 18:13:12 45° NNW 18:17:06 10° NE
STARLINK-1009 3.9 18:10:11 10° W 18:13:25 45° NNW 18:16:40 10° NE
CZ-2D R/B 3.3 18:10:01 10° SSE 18:13:50 61° ENE 18:17:42 10° N
STARLINK-70 4.4 18:10:54 10° W 18:14:47 45° NNW 18:18:41 10° NE
STARLINK-1030 3.6 18:11:03 10° SW 18:15:10 69° SE 18:19:02 12° ENE
STARLINK-1015 3.9 18:12:02 10° W 18:15:15 44° NNW 18:18:28 10° NE
Cosmos 1833 4.4 18:10:21 10° NNW 18:16:02 55° ENE 18:21:38 10° SE
STARLINK-76 4.3 18:12:25 10° W 18:16:19 46° NNW 18:20:13 10° NE
STARLINK-23 4.4 18:14:05 10° W 18:17:58 45° NNW 18:21:47 10° NE
NOSS 2-3 (C) 3.7 18:15:20 10° SSW 18:19:35 64° SE 18:24:35 10° NE
STARLINK-32 4.4 18:15:46 10° W 18:19:38 44° NNW 18:23:24 11° NE
STARLINK-1020 3.6 18:16:00 10° SW 18:20:07 74° SE 18:23:48 13° ENE
STARLINK-40 4.4 18:17:25 10° W 18:21:17 44° NNW 18:24:58 11° NE
SJ 16-02 2.6 18:17:51 10° N 18:21:21 22° ENE 18:23:51 14° E
STARLINK-1047 3.6 18:18:23 10° SW 18:22:33 79° SSE 18:26:11 13° ENE
STARLINK-44 4.4 18:19:07 10° W 18:22:58 43° NNW 18:26:35 11° NE
H-2A R/B 3.0 18:19:34 10° ESE 18:24:09 30° ENE 18:28:49 10° N
STARLINK-37 4.5 18:20:55 10° W 18:24:45 41° NNW 18:28:16 12° NE
STARLINK-1052 3.6 18:20:59 10° SW 18:25:06 80° SSE 18:28:36 14° ENE
ARGOS 4.1 18:21:07 10° ESE 18:25:33 27° ENE 18:30:02 10° N
STARLINK-36 4.5 18:22:26 10° W 18:26:17 42° NNW 18:29:45 12° NE
CSL-04 Rocket 3.7 18:23:02 10° SSE 18:28:35 89° W 18:34:06 10° NNW
Cosmos 2263 4.2 18:24:41 10° SSW 18:30:27 77° ESE 18:36:14 10° NNE
Cosmos 1346 Rocket 2.8 18:27:26 10° S 18:31:21 59° E 18:35:15 10° NNE
BREEZE-M DEB (TANK) 3.0 18:29:12 10° WNW 18:31:52 90° SSW 18:37:09 14° ESE
STARLINK-1023 4.2 18:31:28 10° W 18:34:25 34° NNW 18:36:38 15° NE
STARLINK-43 4.3 18:31:18 10° NW 18:34:43 34° NNE 18:36:38 20° ENE
STARLINK-1033 3.6 18:30:53 10° WSW 18:35:02 89° NNW 18:38:08 17° ENE
YAOGAN 1 3.1 18:30:49 10° S 18:35:06 64° W 18:39:26 10° NNW
Cosmos 1633 Rocket 4.1 18:34:49 10° SSW 18:39:01 49° WNW 18:43:16 10° N
Cosmos 1464 Rocket 4.3 18:33:32 10° SSE 18:39:32 45° E 18:45:33 10° NNE
Cosmos 44 Rocket 4.0 18:36:27 10° NNW 18:40:45 33° NE 18:42:58 22° E
OE (NEXTSAT) 4.3 18:37:38 10° W 18:41:07 90° N 18:42:51 28° E
STARLINK-1035 3.8 18:37:59 10° WSW 18:42:14 76° NNW 18:45:14 19° NE
CRYOSAT 2 4.4 18:38:53 10° S 18:43:48 89° W 18:48:44 10° N
STARLINK-1024 3.7 18:40:53 10° WSW 18:45:01 78° NNW 18:47:44 21° NE
Cosmos 2297 Rocket 3.8 18:43:09 10° N 18:46:38 16° NE 18:47:51 15° NE
STARLINK-1046 4.5 18:43:08 10° SSW 18:46:48 31° SE 18:47:57 27° ESE
Aureole 2 Rocket 4.3 18:44:44 10° WSW 18:46:55 23° WNW 18:49:10 10° N
Cosmos 1933 Rocket 3.4 18:42:48 10° S 18:47:12 81° E 18:51:37 10° N
NOSS 3-1 (C) 4.3 18:41:50 10° WSW 18:47:15 48° NW 18:53:35 10° NNE
Cosmos 2285 Rocket 4.2 18:44:32 10° NNW 18:50:55 76° WSW 18:57:18 10° SSE
STARLINK-1039 4.4 18:48:00 10° SSW 18:51:45 34° SE 18:52:44 30° ESE
Meteor 1-20 Rocket 4.1 18:46:24 10° S 18:51:48 65° E 18:57:18 10° NNE
STARLINK-1027 4.0 18:48:40 10° WSW 18:52:54 64° NNW 18:55:28 23° NE
STARLINK-1007 4.5 18:50:06 10° WNW 18:53:00 29° NNW 18:54:28 20° NNE
Meteor 1-18 Rocket 4.3 18:49:03 10° N 18:54:55 59° ENE 19:00:38 10° SSE
STARLINK-1032 3.8 18:50:51 10° WSW 18:54:59 69° NNW 18:57:17 25° NE
Cosmos 405 3.0 18:53:11 10° N 18:56:41 55° ENE 18:58:22 27° SE
STARLINK-1045 4.2 18:52:54 10° SSW 18:56:43 37° SE 18:57:32 33° ESE
Cosmos 1943 Rocket 3.4 18:51:48 10° SW 18:57:03 41° NW 19:02:18 10° NNE
COSMOS 2487 2.2 18:54:10 10° NNW 18:57:38 76° ENE 18:59:29 25° SSE
ADEOS Rocket 3.6 18:50:07 10° NNE 18:57:57 88° WNW 19:05:37 10° SSW
MOS 1 4.3 18:53:12 10° SSE 18:58:44 59° ENE 19:04:18 10° N
CZ-2C R/B 3.5 18:53:56 10° SE 18:59:30 49° ENE 19:04:57 10° N
STARLINK-1011 3.9 18:55:50 10° WSW 18:59:57 65° NNW 19:02:03 27° NE
Cosmos 2034 Rocket 4.2 18:54:15 10° SSE 19:00:03 45° E 19:05:53 10° NNE
Cosmos 468 Rocket 4.1 18:56:21 10° S 19:01:25 50° ESE 19:06:34 10° NNE
STARLINK-1050 4.1 18:57:50 10° SSW 19:01:44 41° SE 19:02:26 38° ESE
Lacrosse 5 rocket 3.3 18:58:45 10° NW 19:02:19 22° N 19:04:00 18° NE
Okean 1 3.3 18:58:35 10° N 19:02:32 56° ENE 19:04:38 25° SSE
Timation 2 Rocket 4.3 18:55:46 10° NNW 19:02:34 58° ENE 19:07:10 22° SE
Cosmos 1340 3.9 19:00:28 10° SSW 19:04:03 42° WNW 19:07:40 10° N
STARLINK-1036 4.0 19:00:52 10° WSW 19:04:57 61° NNW 19:06:51 30° NE
Cosmos 2227 Rocket 3.7 19:01:29 10° N 19:05:27 19° NE 19:05:52 19° NE
BREEZE-M DEB (TANK) 3.0 19:03:26 10° WNW 19:05:50 51° NNE 19:06:06 48° NE
HJ-1C 3.9 19:03:22 10° S 19:06:37 57° W 19:09:53 10° NNW
STARLINK-1055 3.9 19:02:43 10° SSW 19:06:40 45° SE 19:07:11 42° ESE
SPOT 3 Rocket 4.0 19:05:26 31° ESE 19:07:04 40° ENE 19:11:55 10° N
STARLINK-1044 4.0 19:05:52 10° WSW 19:09:56 58° NNW 19:11:37 32° NE
Meteor 1-14 Rocket 4.1 19:04:56 10° S 19:10:21 60° E 19:15:50 10° NNE
Meteor 2-11 Rocket 4.3 19:05:04 10° S 19:11:08 74° E 19:17:12 10° NNE
STARLINK-1031 4.2 19:07:13 10° W 19:11:11 52° NNW 19:12:45 32° NE
STARLINK-1022 3.8 19:07:40 10° SW 19:11:39 49° SE 19:12:00 47° ESE
Gbstr 26 Del rocket 3.0 19:09:18 10° SW 19:13:21 62° SE 19:14:28 46° E
Cosmos 1898 Rocket 3.3 19:08:48 10° NNW 19:14:00 74° ENE 19:17:01 25° SSE
STARLINK-1029 4.5 19:12:49 10° WNW 19:15:36 27° NNW 19:16:03 26° N
STARLINK-1042 3.7 19:12:34 10° SW 19:16:35 53° SE 19:16:45 52° SE
STARLINK-1037 4.2 19:15:49 10° W 19:19:52 52° NNW 19:21:08 37° NNE
SJ-11-01 4.5 19:15:13 10° S 19:19:52 70° WSW 19:24:33 10° NNW
STARLINK-1056 3.6 19:17:30 10° SW 19:21:33 57° SE 19:21:33 57° SE
Cosmos 1092 Rocket 4.3 19:17:09 10° N 19:23:13 45° ENE 19:24:42 39° ESE
USA 234 4.1 19:21:54 25° ENE 19:24:51 37° N 19:30:44 10° NW
STARLINK-1059 4.3 19:20:54 10° W 19:24:56 49° NNW 19:25:59 39° NNE
STARLINK-1054 3.6 19:22:27 10° SW 19:26:20 61° SSE 19:26:20 61° SSE
Cosmos 1763 Rocket 3.4 19:21:42 10° S 19:26:51 68° ESE 19:32:07 10° NNE
Cosmos 1656 Rocket 4.2 19:22:14 10° SW 19:27:41 60° WNW 19:33:15 10° NNE
Cosmos 2219 3.8 19:24:37 10° NNW 19:29:56 36° NE 19:29:58 36° NE
STARLINK-1057 4.3 19:25:57 10° W 19:29:57 47° NNW 19:30:47 40° NNE
Cosmos 1570 Rocket 4.0 19:25:16 10° S 19:30:09 53° ESE 19:30:09 53° ESE
Meteor 2-4 Rocket 3.8 19:24:42 10° N 19:30:33 59° ENE 19:32:13 43° SE
Meteor 1-19 Rocket 4.2 19:24:44 10° N 19:30:36 88° E 19:35:17 15° S
STARLINK-1062 3.7 19:27:24 10° SW 19:31:07 62° S 19:31:07 62° S
NOSS 3-2 (A) 4.5 19:24:56 10° NNW 19:31:49 42° NE 19:34:00 35° ENE
STARLINK-1034 4.4 19:30:57 10° W 19:34:56 45° NNW 19:35:33 41° N
STARLINK-1053 3.8 19:32:21 10° SW 19:35:53 61° SSW 19:35:53 61° SSW
Resurs 01 Rocket 3.2 19:38:51 23° NNE 19:38:51 23° NNE 19:40:46 10° N
Cosmos 858 Rocket 4.3 19:32:26 10° NNW 19:37:43 87° ENE 19:39:03 51° SSE
STARLINK-1068 4.4 19:35:58 10° W 19:39:56 43° NNW 19:40:19 42° N
Cosmos 1602 4.3 19:37:03 10° SSW 19:40:52 57° WNW 19:44:41 10° N
STARLINK-1061 4.0 19:37:18 10° SW 19:40:40 57° SW 19:40:40 57° SW
Ariane Rocket 4.1 19:38:54 10° S 19:43:44 43° W 19:48:36 10° NNW
Cosmos 220 Rocket 4.4 19:40:42 10° SSW 19:44:02 53° SSW 19:44:02 53° SSW
SL-08 RB Rocket 3.6 19:45:57 81° N 19:45:57 81° N 19:50:14 10° NNW
SJ-6B 3.3 19:46:43 53° NW 19:46:43 53° NW 19:49:54 10° NNW
STARLINK-1067 4.2 19:42:15 10° SW 19:45:26 52° SW 19:45:26 52° SW
Okean 1-7 4.2 19:42:45 10° NNW 19:46:50 41° W 19:50:54 10° SSW
Cosmos 2369 Rocket 4.3 19:42:51 10° WSW 19:47:27 25° NW 19:52:07 10° N
Lacrosse 5 2.3 19:43:47 10° SSW 19:47:37 47° S 19:47:37 47° S
SL-24 DEB 4.4 19:47:01 34° S 19:49:00 72° W 19:53:40 10° N
MetOp-A 4.0 19:50:10 74° E 19:50:21 75° ENE 19:55:43 10° N
ARGOS Delta rocket 3.7 19:51:19 74° W 19:51:19 74° W 19:55:43 10° NNW
STARLINK-1058 4.4 19:47:12 10° WSW 19:50:12 47° WSW 19:50:12 47° WSW
CENTAUR R/B 3.8 19:46:11 10° NNW 19:53:17 37° NNE 19:54:46 35° NE
Meteor 1-13 Rocket 4.3 19:53:48 10° N 19:59:12 67° NE 19:59:12 67° NE
SJ 16-02 2.5 19:55:58 10° NNW 20:00:06 41° WSW 20:00:55 37° SW
H-2A R/B 3.2 19:58:16 10° S 20:03:22 44° W 20:08:35 10° NNW
ATLAS 3B R/B 3.9 19:59:22 10° NNW 20:04:56 27° NNE 20:05:09 27° NNE
ARGOS 4.0 20:01:41 18° SSW 20:05:32 49° W 20:10:50 10° NNW
Cosmos 1627 Rocket 4.4 20:00:19 10° N 20:05:55 67° NE 20:05:55 67° NE
Cosmos 1937 Rocket 4.1 20:02:38 10° NNW 20:07:45 54° WSW 20:08:35 48° SW
Cosmos 44 Rocket 4.5 20:17:54 10° NW 20:21:43 38° W 20:21:43 38° W
Cosmos 2026 Rocket 4.2 20:24:26 10° N 20:29:34 62° NNW 20:29:34 62° NNW
USA 238 DEB 3.8 20:24:00 10° NW 20:30:43 73° NNE 20:30:43 73° NNE
USA 238 3.8 20:24:06 10° NW 20:30:47 73° NNE 20:30:47 73° NNE
Cosmos 2297 Rocket 3.1 20:26:02 10° NNW 20:29:41 41° NNW 20:29:41 41° NNW
Lacrosse 5 rocket 3.9 20:38:00 10° NW 20:39:39 21° NW 20:39:39 21° NW
Cosmos 2227 Rocket 3.5 20:44:37 10° NNW 20:47:42 34° NNW 20:47:42 34° NNW
BREEZE-M DEB (TANK) 4.2 20:44:38 10° WNW 20:56:33 57° WNW 20:56:33 57° WNW
USA 234 4.0 21:09:15 46° NNW 21:09:15 46° NNW 21:13:45 10° NW
CENTAUR R/B 3.9 21:36:47 10° NW 21:41:57 46° NW 21:41:57 46° NW
ATLAS 3B R/B 4.4 21:49:49 10° NW 21:52:24 25° NW 21:52:24 25° NW
